Location: Kitchener
(43.4500°N, 80.5000°W)
Time: 14:10:39
(UTC-05:00)

ATLAS 5 CENTAUR R/B - Visible Passes

Search period start: 19 February 2017 00:00
Search period end: 01 March 2017 00:00
Orbit: 647 x 1013 km, 63.4° (Epoch: 03 February)

Date Brightness Start Highest point End Pass type
(mag) Time Alt. Az. Time Alt. Az. Time Alt. Az.
19 Feb 4.8 04:12:15 10° ESE 04:12:41 10° ESE 04:13:06 10° E visible
19 Feb 1.8 05:51:35 10° SSW 05:56:19 84° SE 06:01:31 10° NE visible
20 Feb 1.9 05:33:42 17° SSW 05:37:24 79° SE 05:42:34 10° NE visible
21 Feb 1.9 05:16:10 31° SSW 05:18:28 74° ESE 05:23:37 10° NE visible
22 Feb 2.0 04:58:27 51° S 04:59:33 70° ESE 05:04:41 10° NE visible
22 Feb 3.2 06:40:53 10° W 06:44:48 23° NW 06:49:00 10° NNE visible
23 Feb 2.0 04:40:36 65° SE 04:40:39 65° ESE 04:45:44 10° NE visible
23 Feb 3.2 06:22:10 11° W 06:25:50 24° NW 06:30:06 10° NNE visible
24 Feb 2.6 04:22:37 51° ENE 04:22:37 51° ENE 04:26:47 10° NE visible
24 Feb 3.1 06:04:12 16° W 06:06:51 25° NW 06:11:12 10° NNE visible
25 Feb 3.2 04:04:33 36° ENE 04:04:33 36° ENE 04:07:50 10° NE visible
25 Feb 3.1 05:46:07 21° WNW 05:47:52 26° NW 05:52:17 10° NNE visible
26 Feb 3.8 03:46:25 27° NE 03:46:25 27° NE 03:48:52 10° NE visible
26 Feb 3.0 05:27:59 26° NW 05:28:54 27° NW 05:33:23 10° NNE visible
27 Feb 4.2 03:28:12 20° NE 03:28:12 20° NE 03:29:55 10° NE visible
27 Feb 2.9 05:09:46 28° NW 05:09:56 28° NW 05:14:29 10° NNE visible
28 Feb 4.6 03:09:56 15° NE 03:09:56 15° NE 03:10:57 10° NE visible
28 Feb 3.1 04:51:30 29° NNW 04:51:30 29° NNW 04:55:35 10° NNE visible
